Colwell, IA

7:46 PM CST on February 19, 2017 (GMT -0600)
Charles City Municipal

Weather History for KCCY - September, 2011

Change the Weather History Date:

Monday, September 19, 2011

  Actual Average Record
Temperature  
Mean Temperature 62 °F -  
Max Temperature 73 °F 74 °F 93 °F (1948)
Min Temperature 50 °F 51 °F 32 °F (1991)
Degree Days  
Heating Degree Days 4    
Growing Degree Days 12 (Base 50)    
Moisture  
Dew Point 49 °F    
Average Humidity 71    
Maximum Humidity 88    
Minimum Humidity 22    
Precipitation  
Precipitation 0.00 in - - ()
Sea Level Pressure  
Sea Level Pressure 30.01 in    
Wind  
Wind Speed 4 mph (NW)    
Max Wind Speed 9 mph    
Max Gust Speed -    
Visibility 8 miles    
Events      
Averages and records for this station are not official NWS values.
T = Trace of Precipitation, MM = Missing Value Source: NWS Daily Summary

Daily Weather History Graph

Daily Weather History Graph

Search for Another Location

Airport or City:

Trip Planner

Search our weather history database for the weather conditions in past years. The results will help you decide how hot, cold, wet, or windy it might be!

Date:

Astronomy

Sep. 19, 2011 Rise Set
Actual Time 6:54 AM CDT 7:13 PM CDT
Civil Twilight 6:25 AM CDT 7:42 PM CDT
Nautical Twilight 5:52 AM CDT 8:15 PM CDT
Astronomical Twilight 5:17 AM CDT 8:49 PM CDT
Moon 11:10 PM CDT (9/19) 1:55 PM CDT (9/19)
Length of Visible Light 13h 16m
Length of Day
12h 19m
Waning Gibbous, 58% of the Moon is Illuminated
Sep 19
Waning Gibbous
Sep 20
Last Quarter
Sep 27
New
Oct 3
First Quarter
Oct 11
Full

Hourly Weather History & Observations

Time (CDT) Temp. Dew Point Humidity Pressure Visibility Wind Dir Wind Speed Gust Speed Precip Events Conditions
12:15 AM 57.2 °F 53.6 °F 88% 29.95 in 5.0 mi NW 4.6 mph - N/A   Haze
12:35 AM 57.2 °F 53.6 °F 88% 29.96 in 5.0 mi NW 4.6 mph - N/A   Haze
1:15 AM 57.2 °F 53.6 °F 88% 29.96 in 4.0 mi NW 5.8 mph - N/A   Haze
1:35 AM 57.2 °F 53.6 °F 88% 29.96 in 4.0 mi NW 5.8 mph - N/A   Haze
1:55 AM 57.2 °F 53.6 °F 88% 29.96 in 4.0 mi NW 4.6 mph - N/A   Haze
2:15 AM 57.2 °F 53.6 °F 88% 29.96 in 4.0 mi NW 5.8 mph - N/A   Haze
2:35 AM 57.2 °F 53.6 °F 88% 29.96 in 5.0 mi NW 6.9 mph - N/A   Haze
3:55 AM 55.4 °F 51.8 °F 88% 29.96 in 7.0 mi Calm Calm - N/A   Mostly Cloudy
4:15 AM 55.4 °F 48.2 °F 77% 29.98 in 3.0 mi WNW 6.9 mph - N/A   Haze
4:35 AM 55.4 °F 50.0 °F 82% 29.99 in 7.0 mi NW 8.1 mph - N/A   Overcast
4:55 AM 55.4 °F 51.8 °F 88% 30.00 in 7.0 mi WNW 8.1 mph - N/A   Overcast
5:15 AM 55.4 °F 51.8 °F 88% 30.00 in 7.0 mi NW 5.8 mph - N/A   Overcast
5:35 AM 55.4 °F 50.0 °F 82% 30.01 in 7.0 mi NW 6.9 mph - N/A   Overcast
5:55 AM 55.4 °F 50.0 °F 82% 30.01 in 10.0 mi NNW 9.2 mph - N/A   Overcast
6:15 AM 53.6 °F 48.2 °F 82% 30.01 in 10.0 mi NNW 6.9 mph - N/A   Overcast
6:35 AM 53.6 °F 48.2 °F 82% 30.01 in 7.0 mi NNW 4.6 mph - N/A   Scattered Clouds
6:55 AM 51.8 °F 46.4 °F 82% 30.01 in 5.0 mi Calm Calm - N/A   Haze
7:15 AM 50.0 °F 44.6 °F 82% 30.02 in 1.0 mi Calm Calm - N/A   Haze
7:22 AM 50.0 °F 44.6 °F 82% 30.02 in 1.2 mi West 4.6 mph - N/A   Haze
7:35 AM 51.8 °F 46.4 °F 82% 30.02 in 2.5 mi WNW 4.6 mph - N/A   Haze
7:42 AM 53.6 °F 48.2 °F 82% 30.02 in 2.5 mi WNW 6.9 mph - N/A   Haze
8:15 AM 53.6 °F 48.2 °F 82% 30.02 in 2.5 mi NW 4.6 mph - N/A   Haze
8:55 AM 55.4 °F 50.0 °F 82% 30.03 in 1.5 mi NW 3.5 mph - N/A   Haze
9:15 AM 55.4 °F 50.0 °F 82% 30.03 in 0.8 mi NW 3.5 mph - N/A   Haze
9:55 AM 55.4 °F 51.8 °F 88% 30.05 in 2.5 mi WNW 4.6 mph - N/A   Haze
10:15 AM 57.2 °F 51.8 °F 82% 30.05 in 5.0 mi NW 4.6 mph - N/A   Haze
10:35 AM 57.2 °F 51.8 °F 82% 30.05 in 7.0 mi Calm Calm - N/A   Overcast
10:55 AM 57.2 °F 53.6 °F 88% 30.06 in 10.0 mi NW 4.6 mph - N/A   Overcast
11:15 AM 59.0 °F 53.6 °F 82% 30.06 in 10.0 mi WNW 3.5 mph - N/A   Overcast
11:35 AM 60.8 °F 53.6 °F 77% 30.07 in 10.0 mi NNW 6.9 mph - N/A   Overcast
11:55 AM 60.8 °F 53.6 °F 77% 30.07 in 10.0 mi NW 4.6 mph - N/A   Overcast
12:15 PM 62.6 °F 53.6 °F 72% 30.06 in 10.0 mi Calm Calm - N/A   Overcast
12:35 PM 62.6 °F 55.4 °F 77% 30.06 in 10.0 mi West 4.6 mph - N/A   Overcast
12:55 PM 64.4 °F 55.4 °F 73% 30.06 in 10.0 mi WNW 4.6 mph - N/A   Mostly Cloudy
1:15 PM 64.4 °F 55.4 °F 73% 30.05 in 10.0 mi West 5.8 mph - N/A   Scattered Clouds
1:35 PM 66.2 °F 55.4 °F 68% 30.05 in 10.0 mi WNW 4.6 mph - N/A   Clear
1:55 PM 68.0 °F 55.4 °F 64% 30.04 in 10.0 mi Calm Calm - N/A   Clear
2:15 PM 69.8 °F 55.4 °F 60% 30.03 in 10.0 mi WNW 8.1 mph - N/A   Clear
2:35 PM 69.8 °F 53.6 °F 56% 30.03 in 10.0 mi WNW 5.8 mph - N/A   Clear
2:55 PM 71.6 °F 46.4 °F 41% 30.02 in 10.0 mi WNW 4.6 mph - N/A   Clear
3:15 PM 71.6 °F 42.8 °F 35% 30.02 in 10.0 mi WNW 3.5 mph - N/A   Clear
3:35 PM 71.6 °F 44.6 °F 38% 30.01 in 10.0 mi WNW 5.8 mph - N/A   Clear
3:55 PM 73.4 °F 44.6 °F 36% 30.00 in 10.0 mi WNW 4.6 mph - N/A   Clear
4:15 PM 73.4 °F 44.6 °F 36% 30.00 in 10.0 mi WNW 4.6 mph - N/A   Clear
4:35 PM 73.4 °F 41.0 °F 31% 30.00 in 10.0 mi West 3.5 mph - N/A   Clear
4:55 PM 73.4 °F 39.2 °F 29% 30.00 in 10.0 mi WNW 4.6 mph - N/A   Clear
5:15 PM 73.4 °F 33.8 °F 23% 29.99 in 10.0 mi NW 3.5 mph - N/A   Clear
5:35 PM 71.6 °F 33.8 °F 25% 29.99 in 10.0 mi NW 4.6 mph - N/A   Clear
5:55 PM 71.6 °F 30.2 °F 22% 29.99 in 10.0 mi Calm Calm - N/A   Clear
6:15 PM 71.6 °F 35.6 °F 27% 29.99 in 10.0 mi Calm Calm - N/A   Clear
6:35 PM 66.2 °F 48.2 °F 52% 29.98 in 10.0 mi Calm Calm - N/A   Clear
6:55 PM 62.6 °F 51.8 °F 68% 29.98 in 10.0 mi Calm Calm - N/A   Clear
7:15 PM 57.2 °F 51.8 °F 82% 29.99 in 10.0 mi Calm Calm - N/A   Clear
7:35 PM 55.4 °F 48.2 °F 77% 29.99 in 10.0 mi Calm Calm - N/A   Clear
7:55 PM 55.4 °F 48.2 °F 77% 29.99 in 10.0 mi Calm Calm - N/A   Clear
8:15 PM 53.6 °F 46.4 °F 77% 30.00 in 10.0 mi Calm Calm - N/A   Clear
8:35 PM 51.8 °F 46.4 °F 82% 30.00 in 10.0 mi Calm Calm - N/A   Clear
8:55 PM 51.8 °F 46.4 °F 82% 30.00 in 10.0 mi Calm Calm - N/A   Clear
9:15 PM 51.8 °F 44.6 °F 76% 30.01 in 10.0 mi Calm Calm - N/A   Clear
9:35 PM 51.8 °F 44.6 °F 76% 30.01 in 10.0 mi East 3.5 mph - N/A   Clear
9:55 PM 51.8 °F 44.6 °F 76% 30.00 in 10.0 mi East 3.5 mph - N/A   Clear
10:15 PM 51.8 °F 44.6 °F 76% 30.01 in 10.0 mi SE 3.5 mph - N/A   Clear
10:35 PM 53.6 °F 44.6 °F 72% 30.00 in 10.0 mi SSE 4.6 mph - N/A   Clear
10:55 PM 51.8 °F 44.6 °F 76% 29.99 in 10.0 mi SE 4.6 mph - N/A   Clear
11:15 PM 53.6 °F 44.6 °F 72% 30.00 in 10.0 mi SE 4.6 mph - N/A   Clear
11:35 PM 53.6 °F 44.6 °F 72% 29.99 in 10.0 mi SE 4.6 mph - N/A   Clear
11:55 PM 50.0 °F 44.6 °F 82% 29.99 in 10.0 mi SE 4.6 mph - N/A   Clear